KC9EGS Weather Reports


time (UTC)temp
C
wind
direction
speed
KPH
gust
KPH
rain 1hr
cm
rain 24hr
cm
rain mn
cm
humidity
%
barometer
mb
20260906164826 23 161 0.0 4.8 0.00 0.00 0.00 63 1015.4
20260906164320 23 195 0.0 4.8 0.00 0.00 0.00 64 1015.5
20260906163825 23 195 0.0 4.8 0.00 0.00 0.00 66 1015.5
20260906162821 23 195 0.0 4.8 0.00 0.00 0.00 65 1015.6
20260906161825 22 217 0.0 4.8 0.00 0.00 0.00 65 1015.6
20260906161319 22 217 8.0 4.8 0.00 0.00 0.00 65 1015.4
20260906155819 22 216 0.0 4.8 0.00 0.00 0.00 69 1015.4
20260906154824 22 196 0.0 3.2 0.00 0.00 0.00 69 1015.4
20260906154320 22 196 0.0 3.2 0.00 0.00 0.00 69 1015.5
20260906153824 22 196 0.0 3.2 0.00 0.00 0.00 68 1015.5
20260906152819 21 195 0.0 3.2 0.00 0.00 0.00 69 1015.6
20260906151827 21 193 0.0 3.2 0.00 0.00 0.00 70 1015.6
20260906151320 21 193 0.0 3.2 0.00 0.00 0.00 70 1015.5
20260906145819 20 167 0.0 3.2 0.00 0.00 0.00 72 1015.4
20260906144319 20 158 0.0 0.0 0.00 0.00 0.00 76 1015.4
20260906142818 18 230 0.0 0.0 0.00 0.00 0.00 83 1015.7
20260906141320 17 230 0.0 0.0 0.00 0.00 0.00 90 1015.8
20260906135820 16 230 0.0 0.0 0.00 0.00 0.00 96 1016.2
20260906134318 16 230 0.0 0.0 0.00 0.00 0.00 98 1016.2
20260906132820 16 230 0.0 0.0 0.00 0.00 0.00 98 1016.0
20260906131320 16 230 0.0 0.0 0.00 0.00 0.00 98 1015.7
20260906125819 15 230 0.0 0.0 0.00 0.00 0.00 98 1015.8
20260906124829 15 230 0.0 0.0 0.00 0.00 0.00 97 1015.8
20260906124320 15 230 0.0 0.0 0.00 0.00 0.00 97 1015.7
20260906122819 15 230 0.0 0.0 0.00 0.00 0.00 97 1015.5
20260906121826 15 230 0.0 0.0 0.00 0.00 0.00 96 1015.5
20260906121320 15 230 0.0 0.0 0.00 0.00 0.00 96 1015.3
20260906120826 15 230 0.0 0.0 0.00 0.00 0.00 96 1015.3
20260906115820 15 230 0.0 0.0 0.00 0.00 0.00 96 1015.2
20260906114823 15 230 0.0 0.0 0.00 0.00 0.00 96 1015.2
20260906114319 15 230 0.0 0.0 0.00 0.00 0.00 96 1015.0
20260906112818 15 230 0.0 0.0 0.00 0.00 0.00 96 1014.9
20260906111827 15 230 0.0 0.0 0.00 0.00 0.00 96 1014.9
20260906111319 15 230 0.0 0.0 0.00 0.00 0.00 96 1014.5
20260906105820 15 230 0.0 0.0 0.00 0.00 0.00 96 1014.7
20260906104826 15 230 0.0 0.0 0.00 0.00 0.00 96 1014.7
20260906104319 15 230 0.0 0.0 0.00 0.00 0.00 96 1014.4
20260906102818 16 230 0.0 0.0 0.00 0.00 0.00 95 1014.3
20260906101320 16 230 0.0 0.0 0.00 0.00 0.00 95 1014.1
20260906095819 16 230 0.0 0.0 0.00 0.00 0.00 95 1014.1
20260906094824 16 230 0.0 0.0 0.00 0.00 0.00 95 1014.1
20260906094318 16 230 0.0 0.0 0.00 0.00 0.00 95 1014.1
20260906092820 17 230 0.0 0.0 0.00 0.00 0.00 95 1014.1
20260906091824 17 230 0.0 0.0 0.00 0.00 0.00 95 1014.1
20260906091319 17 230 0.0 0.0 0.00 0.00 0.00 95 1014.1
20260906085820 17 230 0.0 0.0 0.00 0.00 0.00 95 1013.9
20260906084824 17 230 0.0 0.0 0.00 0.00 0.00 95 1013.9
20260906084318 17 230 0.0 0.0 0.00 0.00 0.00 95 1013.9
20260906084203 17 230 0.0 0.0 0.00 0.00 0.00 95 1013.9
20260906083934 17 230 0.0 0.0 0.00 0.00 0.00 95 1013.9
20260906083823 17 230 0.0 0.0 0.00 0.00 0.00 95 1013.9
20260906082820 17 230 0.0 0.0 0.00 0.00 0.00 95 1013.9
20260906081319 18 230 0.0 0.0 0.00 0.00 0.00 95 1014.0
20260906080823 18 230 0.0 0.0 0.00 0.00 0.00 95 1014.0
20260906075819 18 230 0.0 0.0 0.00 0.00 0.00 95 1014.3
20260906074822 18 230 0.0 0.0 0.00 0.00 0.00 94 1014.3
20260906074319 18 230 0.0 0.0 0.00 0.00 0.00 94 1014.1
20260906073823 18 230 0.0 0.0 0.00 0.00 0.00 94 1014.1
20260906072911 18 230 0.0 0.0 0.00 0.00 0.00 93 1014.2
20260906072818 18 230 0.0 0.0 0.00 0.00 0.00 93 1014.2
20260906071856 18 230 0.0 0.0 0.00 0.00 0.00 93 1014.2
20260906071822 18 230 0.0 0.0 0.00 0.00 0.00 93 1014.2
20260906071320 18 230 0.0 0.0 0.00 0.00 0.00 93 1013.9
20260906070827 18 230 0.0 0.0 0.00 0.00 0.00 93 1013.9
20260906065820 18 230 0.0 0.0 0.00 0.00 0.00 92 1013.7
20260906064824 18 230 0.0 0.0 0.00 0.00 0.00 92 1013.7
20260906064318 18 230 0.0 0.0 0.00 0.00 0.00 92 1013.8
20260906062818 18 232 0.0 0.0 0.00 0.00 0.00 92 1014.0
20260906061826 18 230 0.0 0.0 0.00 0.00 0.00 92 1014.0
20260906061318 18 232 0.0 0.0 0.00 0.00 0.00 91 1014.1
20260906055855 18 230 0.0 0.0 0.00 0.00 0.00 91 1014.1
20260906055820 18 230 0.0 0.0 0.00 0.00 0.00 91 1014.1
20260906054823 19 232 0.0 4.8 0.00 0.00 0.00 91 1014.1
20260906054319 19 232 0.0 4.8 0.00 0.00 0.00 91 1014.1
20260906052819 19 230 0.0 4.8 0.00 0.00 0.00 91 1013.6
20260906051824 19 232 0.0 4.8 0.00 0.00 0.00 91 1013.6
20260906051319 19 230 0.0 4.8 0.00 0.00 0.00 90 1013.7
20260906045819 19 232 0.0 4.8 0.00 0.00 0.00 90 1013.5
20260906044319 20 230 0.0 0.0 0.00 0.00 0.00 89 1013.3
20260906043827 20 232 0.0 0.0 0.00 0.00 0.00 89 1013.3
20260906042820 20 232 0.0 0.0 0.00 0.00 0.00 89 1012.9
20260906041318 20 232 0.0 0.0 0.00 0.00 0.00 89 1012.8
20260906035818 20 232 0.0 0.0 0.00 0.00 0.00 88 1012.7
20260906034824 20 232 0.0 0.0 0.00 0.00 0.00 87 1012.7
20260906034319 20 232 0.0 0.0 0.00 0.00 0.00 87 1012.8
20260906032817 20 232 0.0 0.0 0.00 0.00 0.00 86 1012.7
20260906031823 20 232 0.0 0.0 0.00 0.00 0.00 86 1012.7
20260906031318 20 232 0.0 0.0 0.00 0.00 0.00 85 1012.7
20260906030824 20 232 0.0 0.0 0.00 0.00 0.00 85 1012.7
20260906025820 21 232 0.0 0.0 0.00 0.00 0.00 85 1012.3
20260906024823 21 232 0.0 0.0 0.00 0.00 0.00 84 1012.3
20260906024319 21 232 0.0 0.0 0.00 0.00 0.00 84 1012.3
20260906023824 21 232 0.0 0.0 0.00 0.00 0.00 84 1012.3
20260906022820 21 232 0.0 0.0 0.00 0.00 0.00 83 1012.2
20260906021318 21 232 0.0 0.0 0.00 0.00 0.00 82 1012.2
20260906015817 22 232 0.0 0.0 0.00 0.00 0.00 81 1012.3
20260906014824 22 232 0.0 0.0 0.00 0.00 0.00 80 1012.3
20260906014317 22 232 0.0 0.0 0.00 0.00 0.00 80 1012.1
20260906013823 22 232 0.0 0.0 0.00 0.00 0.00 80 1012.1
20260906012819 22 232 0.0 0.0 0.00 0.00 0.00 79 1011.9
20260906011317 22 232 0.0 0.0 0.00 0.00 0.00 77 1011.6
20260906010825 22 232 0.0 0.0 0.00 0.00 0.00 76 1011.6
20260906005818 23 232 0.0 0.0 0.00 0.00 0.00 76 1011.6
20260906004319 23 232 0.0 0.0 0.00 0.00 0.00 74 1011.5
20260906003823 23 232 0.0 0.0 0.00 0.00 0.00 73 1011.5
20260906002817 23 232 0.0 0.0 0.00 0.00 0.00 73 1011.2
20260906001825 24 232 0.0 0.0 0.00 0.00 0.00 72 1011.2
20260906001318 25 232 0.0 0.0 0.00 0.00 0.00 70 1011.1
20260906000823 25 232 0.0 0.0 0.00 0.00 0.00 69 1011.1
20260905235817 25 232 0.0 0.0 0.00 0.00 0.00 66 1011.0
20260905234318 26 232 0.0 4.8 0.00 0.00 0.00 64 1010.9
20260905233823 26 232 0.0 4.8 0.00 0.00 0.00 64 1010.9
20260905232819 26 232 0.0 4.8 0.00 0.00 0.00 62 1010.9
20260905231318 27 232 0.0 4.8 0.00 0.00 0.00 58 1011.1
20260905225818 27 232 0.0 4.8 0.00 0.00 0.00 58 1011.1
20260905224317 27 232 0.0 8.0 0.00 0.00 0.00 60 1011.0
20260905222819 27 232 0.0 8.0 0.00 0.00 0.00 55 1010.9
20260905221318 27 232 0.0 8.0 0.00 0.00 0.00 54 1011.1
20260905215817 27 232 0.0 8.0 0.00 0.00 0.00 55 1011.3
20260905214822 27 232 0.0 9.7 0.00 0.00 0.00 56 1011.3
20260905214318 27 232 0.0 9.7 0.00 0.00 0.00 56 1011.5
20260905213823 27 232 0.0 9.7 0.00 0.00 0.00 55 1011.5
20260905212819 28 232 0.0 9.7 0.00 0.00 0.00 54 1011.5
20260905211824 28 232 0.0 9.7 0.00 0.00 0.00 54 1011.5
20260905211317 28 232 0.0 9.7 0.00 0.00 0.00 54 1011.3
20260905205819 27 247 0.0 9.7 0.00 0.00 0.00 55 1011.4
20260905204318 27 227 0.0 0.0 0.00 0.00 0.00 57 1011.4
20260905202817 27 198 0.0 0.0 0.00 0.00 0.00 58 1011.5
20260905201318 26 192 0.0 0.0 0.00 0.00 0.00 58 1011.8
20260905195818 26 232 0.0 0.0 0.00 0.00 0.00 59 1011.9
20260905194824 26 236 0.0 4.8 0.00 0.00 0.00 60 1011.9
20260905194317 26 239 0.0 4.8 0.00 0.00 0.00 59 1011.8
20260905193823 27 23 0.0 4.8 0.00 0.00 0.00 61 1011.8
20260905192817 27 21 0.0 4.8 0.00 0.00 0.00 60 1011.6
20260905191824 27 21 0.0 4.8 0.00 0.00 0.00 60 1011.6
20260905191317 27 21 0.0 4.8 0.00 0.00 0.00 61 1011.8
20260905190824 26 21 0.0 4.8 0.00 0.00 0.00 60 1011.8
20260905185818 27 7 3.2 4.8 0.00 0.00 0.00 59 1011.8
20260905184823 27 28 0.0 4.8 0.00 0.00 0.00 60 1011.8
20260905184317 27 123 0.0 4.8 0.00 0.00 0.00 60 1012.0
20260905182817 26 59 0.0 4.8 0.00 0.00 0.00 64 1012.0
20260905181824 26 59 0.0 4.8 0.00 0.00 0.00 65 1012.0
20260905181318 25 158 0.0 4.8 0.00 0.00 0.00 64 1012.1
20260905175819 25 164 0.0 4.8 0.00 0.00 0.00 64 1012.4
20260905174318 25 168 0.0 4.8 0.00 0.00 0.00 67 1012.4
20260905172817 24 128 0.0 4.8 0.00 0.00 0.00 70 1012.6
20260905171824 23 85 0.0 4.8 0.00 0.00 0.00 71 1012.6
20260905171317 23 85 0.0 4.8 0.00 0.00 0.00 71 1012.7
20260905170824 23 85 0.0 4.8 0.00 0.00 0.00 73 1012.7
20260905165819 22 176 0.0 4.8 0.00 0.00 0.00 73 1012.8